Temp
-13 -13 -12 -11 -11 -11 -10 -11 -10 -11 -11 -11 -10 -10 -10 -10 -10 -10 -10 -10 -10 -10 -10 -10 -10 -10 -10 -10 -10 -10 -10 -10 -10 -10 -11 -11 -11 -11 -11 -11 -11 -11 -11 -12
-13 -12 -12 -12 -12 -11 -11 -11 -11 -11 -11 -11 -11 -10 -11 -10 -10 -10 -10 -10 -10 -10 -10 -10 -10 -10 -10 -10 -10 -10 -10 -10 -10 -10 -11 -11 -11 -11 -11 -11 -11 -11 -11 -12
-13 -13 -13 -12 -13 -11 -11 -11 -11 -11 -11 -11 -11 -10 -10 -10 -10 -10 -10 -10 -10 -10 -10 -10 -10 -10 -10 -10 -10 -10 -10 -11 -10 -10 -11 -11 -11 -11 -11 -11 -12 -12 -12 -12
-13 -13 -13 -13 -14 -12 -11 -12 -12 -12 -12 -12 -11 -10 -10 -10 -10 -10 -10 -10 -10 -10 -10 -10 -10 -10 -10 -10 -10 -10 -10 -10 -11 -11 -11 -11 -11 -11 -11 -11 -12 -12 -12 -12
-12 -13 -13 -14 -13 -12 -12 -12 -13 -12 -12 -12 -12 -11 -11 -10 -10 -10 -10 -10 -10 -10 -10 -11 -11 -11 -10 -10 -10 -10 -10 -10 -11 -11 -11 -11 -11 -11 -11 -11 -12 -12 -12 -12
-13 -14 -14 -15 -14 -13 -13 -13 -13 -13 -13 -12 -11 -11 -10 -10 -10 -10 -10 -10 -10 -10 -10 -10 -10 -11 -10 -11 -11 -10 -11 -10 -10 -11 -11 -11 -11 -11 -11 -12 -12 -12 -12 -12
-14 -15 -15 -16 -15 -15 -14 -14 -13 -14 -13 -11 -11 -11 -10 -11 -11 -10 -10 -11 -11 -11 -11 -10 -10 -10 -10 -10 -11 -11 -11 -10 -10 -11 -11 -11 -11 -11 -11 -12 -12 -12 -12 -12
-14 -14 -16 -16 -15 -14 -13 -14 -13 -12 -11 -12 -12 -11 -11 -11 -11 -11 -11 -11 -11 -11 -11 -11 -11 -11 -11 -10 -10 -10 -10 -10 -10 -11 -11 -11 -11 -11 -11 -12 -12 -12 -12 -12
-15 -16 -17 -17 -15 -14 -14 -14 -13 -13 -12 -12 -12 -11 -11 -11 -11 -11 -11 -11 -11 -11 -11 -11 -11 -11 -11 -10 -10 -11 -11 -11 -11 -11 -11 -11 -11 -12 -12 -12 -12 -12 -12 -12
-17 -17 -18 -18 -17 -16 -15 -15 -14 -14 -13 -12 -12 -12 -11 -11 -12 -11 -11 -11 -11 -11 -11 -11 -11 -11 -11 -11 -11 -11 -11 -11 -11 -11 -11 -11 -12 -12 -12 -12 -12 -13 -13 -13
-18 -19 -18 -18 -17 -15 -15 -15 -14 -14 -13 -13 -12 -11 -11 -12 -12 -12 -12 -11 -12 -12 -11 -11 -11 -11 -11 -11 -11 -11 -11 -11 -11 -11 -12 -12 -12 -12 -12 -13 -13 -13 -13 -13
-18 -18 -18 -18 -16 -15 -15 -15 -15 -14 -14 -14 -13 -12 -12 -12 -12 -12 -12 -12 -12 -12 -11 -11 -11 -11 -11 -12 -12 -12 -12 -12 -12 -12 -12 -13 -13 -13 -13 -13 -13 -13 -13 -14
-19 -19 -18 -18 -17 -16 -16 -16 -15 -15 -15 -14 -13 -12 -12 -12 -12 -13 -12 -12 -12 -12 -12 -12 -12 -12 -12 -12 -12 -12 -12 -12 -12 -13 -13 -13 -13 -14 -14 -14 -14 -14 -14 -14
-20 -19 -19 -18 -17 -16 -16 -16 -16 -15 -15 -14 -13 -13 -13 -13 -13 -13 -13 -13 -13 -13 -13 -13 -13 -12 -12 -12 -12 -12 -13 -13 -13 -13 -14 -14 -14 -14 -14 -14 -14 -14 -15 -15
-20 -20 -19 -19 -19 -17 -17 -16 -16 -16 -15 -15 -14 -14 -14 -14 -14 -14 -14 -13 -13 -13 -13 -13 -13 -13 -13 -13 -13 -13 -13 -14 -14 -14 -14 -14 -14 -14 -14 -15 -15 -15 -15 -15
-20 -19 -19 -19 -19 -19 -19 -17 -16 -16 -16 -15 -14 -14 -14 -14 -14 -14 -14 -14 -14 -14 -13 -13 -14 -13 -13 -14 -14 -14 -14 -14 -14 -14 -14 -14 -14 -15 -15 -15 -15 -15 -15 -16
-20 -20 -20 -19 -19 -19 -19 -18 -17 -16 -16 -15 -15 -14 -14 -15 -14 -14 -14 -14 -14 -14 -14 -14 -14 -14 -14 -14 -14 -14 -14 -14 -15 -15 -15 -15 -16 -16 -15 -15 -16 -16 -16 -16
-20 -20 -21 -20 -20 -20 -16 -18 -17 -17 -16 -16 -16 -15 -14 -15 -15 -14 -14 -15 -14 -14 -14 -14 -15 -15 -15 -15 -15 -15 -15 -15 -15 -15 -16 -16 -16 -16 -16 -17 -17 -17 -17 -17
-19 -20 -20 -20 -20 -19 -17 -16 -16 -16 -16 -16 -15 -15 -15 -15 -15 -14 -14 -15 -15 -15 -16 -16 -16 -15 -15 -16 -15 -15 -15 -15 -16 -16 -16 -16 -16 -17 -17 -17 -18 -17 -18 -18
-19 -19 -20 -20 -20 -18 -14 -17 -17 -17 -15 -15 -15 -15 -15 -16 -16 -15 -16 -16 -16 -16 -16 -16 -16 -16 -16 -16 -16 -16 -16 -16 -16 -16 -16 -17 -17 -18 -18 -18 -18 -18 -18 -18
-19 -19 -19 -19 -19 -17 -16 -17 -18 -18 -14 -16 -16 -16 -16 -17 -17 -17 -17 -16 -16 -16 -16 -16 -16 -16 -16 -16 -17 -17 -17 -17 -17 -17 -17 -17 -18 -18 -18 -18 -18 -19 -19 -19
-20 -20 -19 -19 -19 -17 -16 -17 -17 -17 -17 -17 -17 -17 -17 -17 -17 -17 -17 -17 -17 -16 -17 -17 -17 -17 -17 -17 -17 -17 -17 -18 -18 -18 -18 -18 -18 -19 -19 -19 -19 -19 -19 -19
-20 -20 -19 -19 -17 -17 -17 -18 -18 -18 -18 -18 -18 -18 -18 -18 -18 -18 -18 -17 -17 -17 -18 -18 -18 -18 -17 -17 -17 -18 -18 -18 -18 -18 -19 -19 -19 -19 -19 -19 -19 -19 -19 -19
-20 -20 -20 -19 -18 -18 -18 -18 -19 -18 -18 -18 -18 -18 -18 -17 -17 -17 -17 -17 -17 -17 -17 -17 -17 -18 -18 -18 -18 -18 -18 -19 -19 -19 -19 -19 -19 -20 -20 -20 -20 -20 -20 -20
-20 -20 -20 -19 -19 -19 -19 -19 -18 -18 -18 -18 -18 -18 -18 -18 -17 -17 -18 -18 -18 -18 -18 -18 -18 -18 -18 -19 -19 -19 -19 -19 -19 -19 -20 -20 -20 -20 -20 -20 -20 -20 -20 -20
-20 -20 -20 -20 -20 -20 -19 -19 -19 -19 -19 -19 -18 -18 -18 -18 -18 -18 -18 -18 -18 -18 -18 -19 -19 -19 -19 -19 -19 -19 -20 -20 -20 -20 -20 -20 -21 -21 -21 -21 -21 -21 -21 -22
Height
5733 5739 5752 5764 5770 5778 5787 5796 5803 5808 5813 5819 5827 5832 5838 5841 5847 5851 5855 5856 5861 5864 5868 5870 5872 5874 5876 5878 5879 5880 5881 5882 5883 5883 5882 5882 5882 5882 5881 5880 5881 5881 5879 5878
5724 5733 5748 5755 5762 5769 5777 5788 5796 5803 5809 5818 5822 5828 5832 5837 5843 5846 5850 5853 5857 5861 5863 5866 5869 5871 5873 5875 5875 5877 5877 5878 5878 5879 5878 5878 5877 5876 5876 5876 5875 5875 5874 5872
5723 5734 5738 5744 5754 5762 5772 5780 5787 5795 5803 5810 5816 5821 5824 5832 5837 5842 5846 5849 5853 5857 5858 5862 5864 5867 5869 5870 5872 5873 5874 5874 5872 5874 5874 5873 5871 5871 5871 5870 5870 5868 5868 5866
5711 5717 5724 5733 5746 5759 5765 5773 5780 5790 5797 5802 5808 5814 5817 5825 5831 5836 5840 5845 5850 5854 5856 5858 5860 5862 5864 5864 5866 5867 5869 5871 5870 5868 5868 5868 5867 5866 5865 5863 5862 5861 5860 5859
5705 5707 5716 5724 5743 5751 5760 5768 5776 5784 5788 5795 5799 5805 5812 5816 5822 5829 5835 5839 5845 5849 5851 5853 5855 5856 5858 5859 5860 5861 5861 5863 5866 5865 5862 5861 5861 5859 5858 5858 5856 5854 5852 5851
5691 5699 5707 5722 5734 5744 5753 5759 5768 5776 5781 5785 5793 5797 5805 5810 5819 5824 5828 5832 5838 5842 5845 5847 5849 5851 5852 5854 5854 5854 5855 5855 5857 5857 5856 5856 5855 5853 5852 5851 5849 5847 5845 5843
5683 5690 5700 5713 5723 5732 5742 5751 5759 5766 5770 5774 5784 5787 5797 5803 5810 5817 5823 5827 5831 5834 5837 5840 5842 5845 5846 5847 5848 5848 5848 5848 5849 5849 5848 5849 5848 5847 5845 5843 5842 5840 5838 5836
5675 5686 5694 5706 5717 5727 5734 5743 5748 5753 5761 5766 5773 5774 5786 5796 5804 5811 5817 5820 5824 5828 5831 5834 5836 5838 5839 5839 5840 5840 5841 5841 5842 5841 5841 5840 5839 5838 5837 5835 5834 5832 5830 5827
5673 5682 5690 5700 5712 5719 5727 5735 5746 5752 5758 5762 5770 5775 5784 5791 5799 5806 5810 5814 5817 5820 5823 5826 5828 5829 5831 5833 5833 5833 5834 5835 5835 5835 5834 5833 5831 5829 5829 5827 5825 5823 5821 5819
5670 5679 5685 5696 5703 5711 5720 5734 5737 5741 5749 5753 5758 5765 5773 5784 5793 5798 5802 5806 5810 5813 5815 5817 5819 5821 5822 5823 5824 5826 5826 5827 5827 5827 5825 5824 5823 5822 5820 5818 5816 5814 5811 5808
5664 5673 5683 5690 5694 5706 5712 5716 5725 5736 5743 5747 5753 5762 5772 5781 5786 5792 5795 5798 5801 5804 5806 5809 5810 5812 5813 5814 5816 5817 5818 5818 5818 5817 5815 5814 5813 5812 5810 5808 5806 5804 5801 5798
5657 5666 5673 5684 5694 5701 5705 5715 5722 5726 5733 5739 5745 5756 5764 5773 5778 5783 5786 5788 5792 5795 5798 5799 5801 5802 5803 5805 5807 5808 5808 5808 5808 5807 5806 5805 5804 5803 5801 5800 5797 5794 5790 5786
5651 5658 5665 5674 5684 5691 5697 5708 5716 5722 5729 5734 5742 5752 5755 5764 5769 5774 5777 5780 5783 5785 5787 5788 5790 5791 5794 5797 5798 5798 5798 5798 5798 5797 5797 5796 5795 5794 5791 5789 5786 5782 5778 5774
5647 5653 5661 5670 5681 5689 5694 5701 5707 5713 5718 5727 5733 5744 5748 5757 5762 5765 5767 5769 5772 5773 5774 5776 5780 5783 5785 5786 5788 5788 5788 5788 5788 5788 5786 5786 5785 5783 5780 5777 5773 5769 5764 5760
5643 5648 5657 5665 5672 5680 5688 5697 5702 5706 5718 5718 5734 5735 5743 5747 5750 5752 5754 5756 5760 5763 5767 5770 5772 5774 5775 5777 5777 5777 5777 5777 5777 5777 5776 5775 5772 5770 5766 5763 5759 5755 5750 5745
5636 5640 5650 5655 5662 5669 5675 5683 5689 5697 5703 5710 5714 5722 5730 5732 5734 5741 5747 5751 5752 5755 5757 5760 5761 5763 5765 5765 5766 5767 5767 5767 5766 5765 5764 5761 5759 5756 5752 5748 5745 5741 5736 5732
5627 5635 5641 5646 5653 5659 5662 5673 5682 5690 5697 5705 5704 5722 5720 5723 5728 5733 5737 5739 5741 5743 5746 5749 5751 5753 5754 5755 5755 5755 5756 5754 5753 5752 5750 5747 5745 5742 5739 5735 5731 5727 5723 5717
5619 5627 5634 5637 5644 5644 5657 5664 5673 5679 5687 5693 5699 5707 5709 5714 5717 5719 5724 5727 5730 5732 5736 5738 5739 5740 5741 5741 5741 5742 5743 5740 5738 5736 5734 5732 5730 5727 5723 5720 5716 5712 5708 5703
5612 5618 5622 5625 5634 5639 5644 5660 5666 5669 5678 5683 5689 5697 5700 5701 5701 5709 5714 5716 5718 5720 5722 5725 5726 5727 5728 5729 5729 5728 5727 5725 5723 5722 5720 5718 5715 5712 5708 5705 5701 5698 5693 5689
5605 5609 5613 5620 5623 5629 5653 5650 5656 5656 5660 5678 5682 5687 5687 5687 5686 5701 5702 5703 5704 5707 5708 5710 5712 5712 5713 5713 5713 5712 5711 5710 5709 5707 5705 5703 5700 5696 5693 5689 5686 5683 5680 5675
5595 5598 5602 5609 5613 5626 5636 5645 5643 5641 5665 5670 5671 5672 5673 5674 5680 5685 5682 5686 5691 5694 5695 5695 5696 5697 5697 5697 5697 5696 5696 5695 5693 5691 5689 5687 5684 5681 5678 5675 5672 5668 5663 5659
5586 5591 5594 5602 5611 5619 5625 5628 5630 5644 5647 5650 5653 5657 5658 5660 5663 5667 5668 5671 5674 5676 5677 5679 5679 5680 5681 5681 5681 5680 5679 5678 5677 5675 5673 5671 5669 5666 5663 5658 5655 5652 5648 5644
5577 5583 5588 5594 5605 5608 5610 5614 5618 5626 5631 5634 5634 5638 5642 5645 5649 5650 5653 5655 5658 5660 5662 5663 5664 5665 5665 5666 5666 5665 5664 5663 5661 5660 5658 5656 5653 5650 5647 5643 5638 5634 5630 5626
5568 5575 5579 5586 5595 5598 5596 5600 5603 5609 5614 5618 5621 5623 5625 5630 5634 5637 5638 5641 5642 5644 5647 5648 5648 5649 5650 5650 5649 5648 5647 5647 5646 5644 5642 5640 5637 5634 5631 5627 5623 5617 5612 5606
5560 5564 5570 5576 5582 5585 5585 5586 5590 5594 5599 5605 5607 5609 5612 5615 5619 5622 5625 5627 5629 5630 5631 5633 5634 5634 5635 5635 5635 5635 5633 5632 5631 5630 5627 5624 5620 5616 5613 5609 5605 5600 5594 5587
5548 5554 5558 5563 5566 5570 5574 5575 5578 5582 5586 5590 5595 5597 5600 5603 5605 5608 5610 5611 5614 5617 5618 5620 5621 5621 5622 5622 5620 5620 5618 5616 5614 5613 5611 5608 5606 5600 5595 5591 5586 5580 5574 5565
Wind_Speed
56 54 57 63 59 60 61 54 52 51 49 48 44 41 37 37 36 33 30 26 24 21 19 18 17 15 14 14 13 14 15 16 16 17 17 18 20 20 20 21 22 22 22 22
58 56 56 62 64 64 63 57 56 52 49 46 46 43 41 39 37 37 34 30 28 24 21 21 19 18 17 17 17 17 19 19 18 20 20 21 22 24 24 25 24 25 26 26
48 49 59 66 67 65 63 60 59 56 50 49 48 47 46 41 40 38 35 33 29 27 26 23 21 19 19 19 19 19 19 21 21 22 22 23 25 27 26 27 28 28 29 31
51 56 62 69 69 66 66 62 60 55 49 51 51 50 47 43 41 41 38 35 30 29 25 23 22 21 22 21 21 22 23 23 24 26 27 27 28 29 30 30 31 32 33 34
55 54 60 70 66 67 64 61 58 55 52 53 54 54 50 48 47 43 39 36 32 31 28 26 25 23 23 24 24 26 26 26 25 26 29 31 30 32 33 33 34 35 37 38
62 60 63 69 62 63 62 63 58 55 52 57 57 57 52 51 45 44 43 38 34 33 30 29 27 27 26 27 28 27 27 27 27 28 31 32 32 35 35 36 38 39 40 41
64 64 68 67 63 64 64 61 58 55 58 63 60 59 55 52 50 47 42 39 37 36 33 31 30 30 29 29 28 28 28 29 30 31 32 33 33 36 37 38 39 40 41 42
66 63 72 67 67 68 66 62 63 64 64 65 62 64 59 52 49 46 42 41 39 37 35 34 33 32 32 31 30 31 32 33 34 33 34 34 35 37 38 39 39 40 42 43
63 66 70 61 59 64 64 63 60 60 61 61 60 60 56 50 48 45 43 42 41 39 38 36 35 35 34 33 33 34 34 35 35 36 37 37 38 38 39 39 40 41 42 43
55 60 58 54 57 58 60 57 61 62 63 65 63 62 58 51 46 45 42 41 41 41 40 40 37 36 36 37 36 36 36 36 37 38 38 40 41 40 40 42 42 40 42 44
55 54 52 51 57 58 60 62 62 59 61 63 63 60 54 47 45 43 42 43 42 42 42 42 40 40 39 38 38 37 36 37 39 40 41 42 41 41 41 42 43 44 45 48
55 57 56 50 51 53 57 55 57 60 60 60 59 57 53 47 43 42 42 42 40 41 43 43 43 41 40 39 37 37 38 40 42 42 42 41 42 41 42 44 46 47 49 51
50 52 54 51 52 54 54 53 54 55 53 55 54 54 51 47 43 39 39 40 41 42 43 45 44 41 40 40 41 41 42 41 42 42 41 42 43 43 43 46 49 51 54 56
42 46 49 51 53 54 54 53 53 54 55 54 53 48 46 43 38 38 38 39 41 43 45 43 41 40 39 40 40 40 41 42 42 43 43 44 45 47 49 53 56 57 57 57
46 46 44 45 48 47 47 48 46 49 48 51 46 45 41 40 40 42 43 43 43 43 39 38 38 38 38 40 42 42 43 43 42 44 46 50 54 54 55 56 56 57 58 58
42 44 44 46 45 47 47 45 49 47 45 48 50 48 43 45 47 44 42 41 40 40 41 42 42 42 42 42 43 43 45 46 48 52 56 58 60 59 56 55 56 58 58 60
45 39 40 46 48 48 52 53 47 47 52 51 51 41 44 45 47 44 42 43 43 44 45 45 45 45 44 44 45 49 53 54 59 60 62 61 58 56 58 60 59 59 61 63
49 44 42 43 45 53 53 52 52 47 47 51 54 51 48 47 47 47 46 46 46 48 48 47 48 48 47 49 54 58 60 59 60 60 58 57 58 60 59 57 59 62 61 59
54 52 52 53 55 57 58 53 52 58 56 51 51 49 50 51 53 56 53 50 47 45 47 48 51 55 59 61 60 60 62 59 58 59 60 60 58 58 60 61 60 59 57 56
44 50 58 53 55 58 46 54 51 57 61 53 54 54 57 53 57 57 52 52 52 52 54 55 55 57 60 63 66 64 59 58 60 60 58 59 61 60 57 57 57 55 57 60
45 48 51 60 62 58 52 51 55 62 44 50 57 58 57 57 56 56 58 60 60 61 62 64 65 65 64 64 62 60 58 56 56 59 61 60 56 54 55 55 56 59 61 65
47 48 47 46 45 43 44 47 52 50 56 58 58 59 59 62 65 64 66 65 66 66 62 58 59 59 58 56 57 58 58 58 60 58 54 54 54 54 56 59 61 64 68 71
50 47 46 44 36 39 42 42 41 41 41 45 50 49 52 57 55 55 58 63 64 62 61 59 56 58 59 61 60 61 60 56 53 53 54 55 55 58 61 63 65 70 72 74
47 45 46 44 42 42 44 45 44 43 44 45 48 52 55 55 55 55 55 56 57 57 56 56 56 53 48 46 47 48 51 54 54 54 54 57 60 62 64 67 70 74 77 79
48 46 45 45 46 46 48 49 46 45 42 40 44 50 50 49 52 52 50 50 50 50 51 50 48 46 47 49 51 53 54 54 53 55 60 62 63 66 70 73 75 77 80 82
46 43 42 42 45 49 50 51 50 47 46 47 47 45 45 43 43 46 46 45 45 47 50 52 51 51 50 50 51 52 52 54 59 61 63 65 69 71 73 75 77 78 78 79
Wind_Direction
230 220 215 219 201 203 208 208 208 204 205 206 207 206 206 209 208 204 205 204 205 203 204 209 213 216 226 237 238 246 255 257 263 263 264 268 275 279 280 282 285 289 292 291
224 214 211 212 204 206 204 203 208 207 207 212 212 209 210 212 212 211 209 208 209 206 205 215 219 225 232 240 245 251 258 261 263 265 269 272 272 273 276 281 284 286 287 287
213 211 209 212 205 207 203 204 208 206 206 211 213 213 214 212 216 215 215 212 211 210 211 216 223 230 237 244 249 254 258 268 273 273 272 273 274 276 280 282 284 284 285 286
213 215 210 209 202 208 205 205 209 207 206 210 214 215 219 213 216 218 216 216 215 218 221 225 228 234 243 250 258 262 263 260 264 270 272 271 274 277 279 280 283 285 286 288
218 216 212 197 201 207 205 206 209 207 207 210 215 217 216 217 216 219 219 220 221 221 225 233 237 240 249 255 258 263 265 268 266 265 271 274 276 277 279 283 285 287 288 290
212 213 199 193 203 205 205 207 207 209 208 213 216 220 214 220 220 219 222 222 224 228 229 234 239 248 252 257 260 263 268 272 275 272 272 275 280 282 286 287 288 289 290 291
208 204 195 196 202 203 205 208 207 209 211 213 215 221 217 217 220 221 222 227 229 230 234 238 243 249 254 259 264 268 270 272 273 274 277 279 280 282 283 283 284 287 288 290
207 206 192 198 203 206 207 209 211 209 211 215 215 221 222 219 220 223 226 229 234 237 239 241 245 250 254 258 262 267 270 271 273 275 277 279 279 280 281 283 285 286 288 289
209 201 195 202 204 205 209 212 211 214 218 222 223 226 227 224 223 223 228 234 236 238 242 246 249 253 256 258 260 264 268 271 275 277 278 279 279 279 282 283 284 285 287 290
204 200 200 206 205 211 212 214 214 216 218 223 225 226 227 227 228 228 229 233 238 241 244 246 250 253 256 259 262 265 268 271 273 275 277 277 278 279 281 282 284 287 289 290
203 205 204 207 209 213 211 211 214 219 224 228 232 230 231 231 233 235 236 238 240 242 245 249 252 254 257 260 261 264 268 270 271 273 274 275 278 279 280 282 286 288 290 290
209 207 203 210 214 216 217 218 222 223 223 227 232 235 235 236 237 240 241 242 245 248 250 253 255 257 258 261 264 266 267 269 272 273 275 277 279 279 282 284 285 286 287 289
214 214 209 212 214 218 221 221 222 225 229 231 235 238 240 239 239 241 244 246 247 249 251 252 253 254 258 263 265 266 268 268 271 273 275 276 278 280 280 283 285 287 288 290
221 224 220 217 218 219 222 223 224 226 230 233 235 237 244 244 244 244 244 245 246 247 248 250 254 258 259 262 263 265 266 268 271 274 276 278 280 282 284 287 287 288 290 292
218 221 221 221 221 224 225 230 233 235 234 238 237 241 241 245 244 241 240 240 243 247 251 254 255 257 258 260 263 265 267 271 274 278 281 283 284 285 286 286 288 292 292 291
217 220 221 221 223 223 225 227 227 227 230 233 235 233 236 239 240 241 243 246 248 250 252 253 253 254 255 257 261 266 271 277 282 286 287 286 286 284 284 288 290 290 290 290
211 219 221 224 226 229 227 220 227 231 232 235 239 238 241 243 245 244 243 244 245 248 252 253 254 256 257 262 267 271 273 279 283 286 286 283 281 283 287 289 288 288 290 292
212 214 220 222 225 229 227 226 223 229 233 235 240 238 241 243 244 243 245 248 251 252 254 254 255 258 262 265 270 276 282 282 280 279 278 280 283 285 286 287 288 289 291 291
220 222 219 220 222 227 230 230 231 232 232 233 236 239 242 245 246 249 251 252 253 254 254 256 259 263 266 270 274 275 276 275 275 277 279 281 283 285 286 287 288 289 289 290
212 221 225 230 236 234 236 235 234 237 237 238 243 246 245 243 245 251 255 256 255 256 258 260 262 265 267 269 272 273 272 274 277 278 278 281 285 285 285 285 287 288 290 293
228 227 225 230 235 243 243 238 241 242 248 241 242 242 244 249 253 252 254 256 257 259 263 266 267 268 269 270 270 271 273 273 274 277 282 282 282 283 284 286 289 290 292 292
235 239 242 242 242 237 240 239 243 251 249 251 248 245 249 251 253 254 254 257 260 261 263 261 261 263 265 267 269 270 270 274 280 279 279 282 284 284 286 290 292 293 292 293
242 243 247 247 246 246 245 248 243 240 236 236 242 242 241 243 246 247 249 253 255 255 257 257 260 263 265 267 268 271 275 275 275 278 281 281 281 285 288 290 291 290 292 294
239 244 249 250 246 245 250 252 252 246 243 242 243 246 245 245 246 249 251 253 255 256 257 258 259 260 262 263 265 267 269 273 276 278 279 276 283 286 288 289 288 288 289 291
243 246 247 248 247 247 249 250 250 250 245 240 242 246 249 252 252 251 251 252 253 254 255 255 257 260 262 265 268 271 272 273 275 272 276 280 282 284 283 284 285 287 291 293
245 246 247 249 245 243 243 248 252 251 253 257 256 253 248 250 252 251 251 250 251 252 255 257 262 265 266 266 268 271 272 270 270 274 277 278 278 279 281 283 287 291 293 296